| time (UTC) | temp F | wind direction | speed knots | gust knots | rain 1hr in | rain 24hr in | rain mn in | humidity % | barometer mb |
| 20260508023011 | 48 | 0 | 0.0 | 0.0 | 0.00 | 0.00 | 0.00 | 72 | 1013.3 |
| 20260508021010 | 49 | 0 | 0.0 | 0.0 | 0.00 | 0.00 | 0.00 | 71 | 1013.1 |
| 20260508020010 | 50 | 0 | 0.0 | 0.0 | 0.00 | 0.00 | 0.00 | 70 | 1013.0 |
| 20260508015007 | 50 | 250 | 0.0 | 0.9 | 0.00 | 0.00 | 0.00 | 69 | 1012.9 |
| 20260508014007 | 51 | 330 | 0.0 | 2.6 | 0.00 | 0.00 | 0.00 | 69 | 1012.8 |
| 20260508013007 | 51 | 280 | 0.0 | 1.7 | 0.00 | 0.00 | 0.00 | 68 | 1012.7 |
| 20260508012006 | 52 | 340 | 0.0 | 3.5 | 0.00 | 0.00 | 0.00 | 67 | 1012.5 |
| 20260508005003 | 53 | 318 | 0.0 | 3.5 | 0.00 | 0.00 | 0.00 | 65 | 1012.0 |
| 20260508004001 | 54 | 350 | 2.6 | 7.0 | 0.00 | 0.00 | 0.00 | 64 | 1011.9 |
| 20260508002000 | 55 | 287 | 1.7 | 6.1 | 0.00 | 0.00 | 0.00 | 63 | 1011.5 |
| 20260508001000 | 55 | 356 | 2.6 | 9.6 | 0.00 | 0.00 | 0.00 | 62 | 1011.2 |
| 20260508000000 | 56 | 6 | 4.3 | 8.7 | 0.00 | 0.00 | 0.00 | 61 | 1011.1 |
| 20260507234957 | 57 | 278 | 2.6 | 7.0 | 0.00 | 0.00 | 0.00 | 61 | 1010.9 |
| 20260507233955 | 57 | 359 | 1.7 | 7.0 | 0.00 | 0.00 | 0.00 | 60 | 1010.8 |
| 20260507232002 | 57 | 353 | 3.5 | 12.2 | 0.00 | 0.00 | 0.00 | 59 | 1010.6 |
| 20260507230954 | 58 | 266 | 3.5 | 10.4 | 0.00 | 0.00 | 0.00 | 58 | 1010.6 |
| 20260507223953 | 58 | 308 | 3.5 | 7.8 | 0.00 | 0.00 | 0.00 | 58 | 1010.3 |
| 20260507222953 | 58 | 304 | 2.6 | 8.7 | 0.00 | 0.00 | 0.00 | 58 | 1010.3 |
| 20260507221952 | 58 | 352 | 1.7 | 8.7 | 0.00 | 0.00 | 0.00 | 57 | 1010.3 |
| 20260507220951 | 59 | 285 | 2.6 | 7.0 | 0.00 | 0.00 | 0.00 | 56 | 1010.0 |
| 20260507214957 | 59 | 53 | 3.5 | 8.7 | 0.00 | 0.00 | 0.00 | 55 | 1010.0 |
| 20260507214006 | 60 | 7 | 3.5 | 13.0 | 0.00 | 0.00 | 0.00 | 53 | 1009.7 |
| 20260507212950 | 59 | 255 | 4.3 | 9.6 | 0.00 | 0.00 | 0.00 | 54 | 1009.7 |
| 20260507211003 | 61 | 271 | 4.3 | 10.4 | 0.00 | 0.00 | 0.00 | 53 | 1009.6 |
| 20260507210007 | 60 | 350 | 5.2 | 13.9 | 0.00 | 0.00 | 0.00 | 52 | 1009.6 |
| 20260507194955 | 60 | 338 | 4.3 | 13.0 | 0.00 | 0.00 | 0.00 | 57 | 1010.0 |
| 20260507192957 | 59 | 263 | 4.3 | 9.6 | 0.00 | 0.00 | 0.00 | 56 | 1010.3 |
| 20260507191006 | 60 | 277 | 5.2 | 16.5 | 0.00 | 0.00 | 0.00 | 55 | 1010.4 |
| 20260507185951 | 62 | 269 | 3.5 | 8.7 | 0.00 | 0.00 | 0.00 | 58 | 1010.3 |
| 20260507184942 | 60 | 302 | 5.2 | 11.3 | 0.00 | 0.00 | 0.00 | 59 | 1010.5 |
| 20260507183950 | 59 | 343 | 3.5 | 13.0 | 0.00 | 0.00 | 0.00 | 59 | 1010.6 |
| 20260507183000 | 58 | 294 | 3.5 | 11.3 | 0.00 | 0.00 | 0.00 | 62 | 1010.5 |
| 20260507181943 | 58 | 281 | 4.3 | 12.2 | 0.00 | 0.00 | 0.00 | 61 | 1010.6 |
| 20260507180954 | 57 | 236 | 5.2 | 11.3 | 0.00 | 0.00 | 0.00 | 60 | 1010.7 |
| 20260507175941 | 58 | 270 | 3.5 | 10.4 | 0.00 | 0.00 | 0.00 | 63 | 1010.7 |
| 20260507174955 | 57 | 288 | 2.6 | 11.3 | 0.00 | 0.00 | 0.00 | 63 | 1010.9 |
| 20260507173939 | 58 | 280 | 4.3 | 11.3 | 0.00 | 0.00 | 0.00 | 62 | 1011.0 |
| 20260507172951 | 57 | 274 | 3.5 | 8.7 | 0.00 | 0.00 | 0.00 | 65 | 1011.1 |
| 20260507171942 | 58 | 297 | 1.7 | 7.8 | 0.00 | 0.00 | 0.00 | 65 | 1011.3 |
| 20260507170938 | 58 | 274 | 4.3 | 8.7 | 0.00 | 0.00 | 0.00 | 65 | 1011.4 |
| 20260507165937 | 58 | 266 | 3.5 | 11.3 | 0.00 | 0.00 | 0.00 | 66 | 1011.4 |
| 20260507164943 | 59 | 276 | 3.5 | 8.7 | 0.00 | 0.00 | 0.00 | 65 | 1011.4 |
| 20260507164014 | 57 | 264 | 3.5 | 10.4 | 0.00 | 0.00 | 0.00 | 65 | 1011.5 |
| 20260507163939 | 57 | 264 | 3.5 | 10.4 | 0.00 | 0.00 | 0.00 | 65 | 1011.5 |
| 20260507162938 | 57 | 280 | 3.5 | 7.8 | 0.00 | 0.00 | 0.00 | 63 | 1011.7 |
| 20260507161938 | 57 | 260 | 3.5 | 9.6 | 0.00 | 0.00 | 0.00 | 64 | 1011.7 |
| 20260507160938 | 58 | 267 | 3.5 | 9.6 | 0.00 | 0.00 | 0.00 | 65 | 1011.7 |
| 20260507160000 | 57 | 295 | 3.5 | 8.7 | 0.00 | 0.00 | 0.00 | 65 | 1011.9 |
| 20260507150938 | 56 | 243 | 3.5 | 7.8 | 0.00 | 0.00 | 0.00 | 68 | 1012.5 |
| 20260507145933 | 56 | 280 | 3.5 | 8.7 | 0.00 | 0.00 | 0.00 | 69 | 1012.7 |
| 20260507144939 | 55 | 353 | 3.5 | 8.7 | 0.00 | 0.00 | 0.00 | 70 | 1012.7 |
| 20260507143934 | 54 | 295 | 3.5 | 6.1 | 0.00 | 0.00 | 0.00 | 69 | 1012.9 |
| 20260507142932 | 55 | 353 | 2.6 | 7.8 | 0.00 | 0.00 | 0.00 | 71 | 1013.0 |
| 20260507141941 | 55 | 280 | 2.6 | 6.1 | 0.00 | 0.00 | 0.00 | 74 | 1013.1 |
| 20260507141002 | 54 | 242 | 1.7 | 4.3 | 0.00 | 0.00 | 0.00 | 78 | 1013.3 |
| 20260507135936 | 53 | 277 | 1.7 | 5.2 | 0.00 | 0.00 | 0.00 | 78 | 1013.5 |
| 20260507135008 | 53 | 283 | 1.7 | 7.0 | 0.00 | 0.00 | 0.00 | 80 | 1013.5 |
| 20260507133935 | 53 | 291 | 0.9 | 3.5 | 0.00 | 0.00 | 0.00 | 83 | 1013.5 |
| 20260507131938 | 51 | 287 | 0.9 | 6.1 | 0.00 | 0.00 | 0.00 | 86 | 1013.8 |
| 20260507131004 | 50 | 217 | 0.9 | 2.6 | 0.00 | 0.00 | 0.00 | 89 | 1013.7 |
| 20260507130927 | 50 | 217 | 0.9 | 2.6 | 0.00 | 0.00 | 0.00 | 89 | 1013.7 |
| 20260507125926 | 49 | 212 | 1.7 | 4.3 | 0.00 | 0.00 | 0.00 | 93 | 1013.8 |
| 20260507124926 | 48 | 217 | 1.7 | 3.5 | 0.00 | 0.00 | 0.00 | 96 | 1013.9 |
| 20260507123945 | 47 | 212 | 1.7 | 2.6 | 0.00 | 0.00 | 0.00 | 98 | 1013.9 |
| 20260507122924 | 46 | 210 | 0.0 | 1.7 | 0.00 | 0.00 | 0.00 | 99 | 1013.9 |
| 20260507121923 | 45 | 221 | 0.9 | 2.6 | 0.00 | 0.00 | 0.00 | 100 | 1013.9 |
| 20260507115921 | 42 | 0 | 0.0 | 0.0 | 0.00 | 0.00 | 0.00 | 100 | 1013.9 |
| 20260507114921 | 42 | 0 | 0.0 | 0.0 | 0.00 | 0.00 | 0.00 | 100 | 1013.9 |
| 20260507113917 | 42 | 0 | 0.0 | 0.0 | 0.00 | 0.00 | 0.00 | 100 | 1013.8 |
| 20260507112917 | 40 | 0 | 0.0 | 0.0 | 0.00 | 0.00 | 0.00 | 100 | 1013.6 |
| 20260507111916 | 40 | 0 | 0.0 | 0.0 | 0.00 | 0.00 | 0.00 | 100 | 1013.5 |
| 20260507105916 | 38 | 0 | 0.0 | 0.0 | 0.00 | 0.00 | 0.00 | 100 | 1013.5 |
| 20260507104915 | 37 | 0 | 0.0 | 0.0 | 0.00 | 0.00 | 0.00 | 100 | 1013.4 |
| 20260507103915 | 38 | 0 | 0.0 | 0.0 | 0.00 | 0.00 | 0.00 | 100 | 1013.2 |
| 20260507100911 | 38 | 0 | 0.0 | 0.0 | 0.00 | 0.00 | 0.00 | 100 | 1013.1 |
| 20260507094944 | 38 | 0 | 0.0 | 0.0 | 0.00 | 0.00 | 0.00 | 100 | 1013.0 |
| 20260507094910 | 38 | 0 | 0.0 | 0.0 | 0.00 | 0.00 | 0.00 | 100 | 1013.0 |
| 20260507091907 | 39 | 0 | 0.0 | 0.0 | 0.00 | 0.00 | 0.00 | 100 | 1013.2 |
| 20260507090943 | 39 | 0 | 0.0 | 0.0 | 0.00 | 0.00 | 0.00 | 100 | 1013.2 |
| 20260507090905 | 39 | 0 | 0.0 | 0.0 | 0.00 | 0.00 | 0.00 | 100 | 1013.2 |
| 20260507085905 | 40 | 0 | 0.0 | 0.0 | 0.00 | 0.00 | 0.00 | 100 | 1013.2 |
| 20260507085004 | 40 | 0 | 0.0 | 0.0 | 0.00 | 0.00 | 0.00 | 100 | 1013.2 |
| 20260507084904 | 40 | 0 | 0.0 | 0.0 | 0.00 | 0.00 | 0.00 | 100 | 1013.2 |
| 20260507083904 | 40 | 0 | 0.0 | 0.0 | 0.00 | 0.00 | 0.00 | 100 | 1013.1 |
| 20260507082903 | 40 | 0 | 0.0 | 0.0 | 0.00 | 0.00 | 0.00 | 99 | 1013.2 |
| 20260507081903 | 41 | 0 | 0.0 | 0.0 | 0.00 | 0.00 | 0.00 | 99 | 1013.1 |
| 20260507073902 | 42 | 0 | 0.0 | 0.0 | 0.00 | 0.00 | 0.00 | 97 | 1013.2 |
| 20260507072900 | 42 | 0 | 0.0 | 0.0 | 0.00 | 0.00 | 0.00 | 97 | 1013.1 |
| 20260507071859 | 43 | 0 | 0.0 | 0.0 | 0.00 | 0.00 | 0.00 | 96 | 1013.2 |
| 20260507070859 | 43 | 0 | 0.0 | 0.0 | 0.00 | 0.00 | 0.00 | 95 | 1013.2 |
| 20260507064858 | 44 | 0 | 0.0 | 0.0 | 0.00 | 0.00 | 0.00 | 93 | 1013.4 |
| 20260507063858 | 45 | 0 | 0.0 | 0.0 | 0.00 | 0.00 | 0.00 | 91 | 1013.3 |
| 20260507062858 | 46 | 0 | 0.0 | 0.0 | 0.00 | 0.00 | 0.00 | 91 | 1013.3 |
| 20260507061855 | 47 | 0 | 0.0 | 0.0 | 0.00 | 0.00 | 0.00 | 91 | 1013.3 |
| 20260507055852 | 47 | 0 | 0.0 | 0.0 | 0.00 | 0.00 | 0.00 | 90 | 1013.5 |
| 20260507053852 | 47 | 0 | 0.0 | 0.0 | 0.00 | 0.00 | 0.00 | 89 | 1013.8 |
| 20260507052928 | 48 | 0 | 0.0 | 0.0 | 0.00 | 0.00 | 0.00 | 88 | 1013.9 |
| 20260507052851 | 48 | 0 | 0.0 | 0.0 | 0.00 | 0.00 | 0.00 | 88 | 1013.9 |
| 20260507051851 | 48 | 0 | 0.0 | 0.0 | 0.00 | 0.00 | 0.00 | 87 | 1014.0 |
| 20260507050924 | 48 | 0 | 0.0 | 0.0 | 0.00 | 0.00 | 0.00 | 86 | 1014.0 |
| 20260507050850 | 48 | 0 | 0.0 | 0.0 | 0.00 | 0.00 | 0.00 | 86 | 1014.0 |
| 20260507045850 | 48 | 0 | 0.0 | 0.0 | 0.00 | 0.00 | 0.00 | 86 | 1013.9 |
| 20260507044850 | 48 | 0 | 0.0 | 0.0 | 0.00 | 0.00 | 0.00 | 86 | 1013.8 |
| 20260507043849 | 49 | 0 | 0.0 | 0.0 | 0.00 | 0.00 | 0.00 | 85 | 1013.8 |
| 20260507042847 | 49 | 0 | 0.0 | 0.0 | 0.00 | 0.00 | 0.00 | 85 | 1013.9 |
| 20260507041849 | 49 | 0 | 0.0 | 0.0 | 0.00 | 0.00 | 0.00 | 86 | 1013.9 |
| 20260507040847 | 49 | 346 | 0.0 | 0.9 | 0.00 | 0.00 | 0.00 | 85 | 1013.7 |
| 20260507033845 | 50 | 0 | 0.0 | 0.0 | 0.00 | 0.00 | 0.47 | 84 | 1013.7 |
| 20260507032845 | 50 | 228 | 0.0 | 0.9 | 0.00 | 0.00 | 0.47 | 84 | 1013.6 |
| 20260507030844 | 50 | 356 | 0.0 | 1.7 | 0.00 | 0.00 | 0.47 | 83 | 1013.2 |
| 20260507025844 | 50 | 346 | 0.0 | 0.9 | 0.00 | 0.00 | 0.47 | 83 | 1013.3 |
| 20260507025005 | 50 | 0 | 0.0 | 0.0 | 0.00 | 0.00 | 0.47 | 82 | 1013.3 |
| 20260507024844 | 50 | 0 | 0.0 | 0.0 | 0.00 | 0.00 | 0.47 | 82 | 1013.3 |
| 20260507024003 | 50 | 332 | 0.0 | 0.0 | 0.00 | 0.00 | 0.47 | 82 | 1013.1 |